This demonstration page uses our WeatherBlox Daily Observations layout. Learn more.

Left ArrowRight Arrow

39.92423, -83.80882

Hourly Observations for November 27, 2022

Temp ( °F °C ) Dew Point ( °F °C ) Humidity (%) Winds ( mph kmh ) Pressure ( in mb ) Visibility ( mi km ) Precip ( " mm )
12:56 am 00:56 Cloudy with Light Rain 44 6.7 41 5 89 89 SSE 8 13 29.83 1010 10 16 0.01 0.13
1:56 am 01:56 Cloudy with Light Rain 43 6.1 43 6.1 100 100 ESE 8 13 29.76 1008 10 16 0.01 0.25
2:56 am 02:56 Cloudy with Light Rain 44 6.7 N/A N/A SE 10 17 29.72 1007 10 16 0.01 0.25
3:48 am 03:48 Cloudy with Light Rain 45 7 N/A N/A SE 9 15 29.69 1006 10 16 0.01 0.13
3:56 am 03:56 Cloudy 45 7.2 N/A N/A SE 10 17 29.67 1005 10 16 0.01 0.13
4:56 am 04:56 Cloudy with Light Rain N/A N/A N/A SE 14 22 29.65 1004 7 11 0.01 0.13
5:56 am 05:56 Cloudy with Light Rain N/A N/A N/A SSE 18 30 29.63 1004 10 16 0.00 0.00
6:56 am 06:56 Cloudy with Light Rain 48 8.9 N/A N/A SSE 13 20 29.53 1000 10 16 0.00 0.00
7:56 am 07:56 Cloudy 49 9.4 N/A N/A SSE 14 22 29.51 999 10 16 0.01 0.13
8:10 am 08:10 Cloudy 48 9 N/A N/A SSE 14 22 29.50 999 10 16 0.00 0.00
8:56 am 08:56 Cloudy 50 10 N/A N/A SSE 10 17 29.48 998 10 16 0.00 0.00
9:32 am 09:32 Cloudy 52 11 N/A N/A SSE 10 17 29.44 997 10 16 0.00 0.00
9:56 am 09:56 Cloudy 52 11.1 N/A N/A SSE 12 19 29.42 996 10 16 0.00 0.00
10:56 am 10:56 Cloudy with Light Rain 54 12.2 N/A N/A SW 17 28 29.42 996 10 16 0.01 0.13
11:03 am 11:03 Cloudy 54 12 N/A N/A SW 15 24 29.41 996 10 16 0.01 0.13
11:09 am 11:09 Cloudy 55 13 N/A N/A SW 18 30 29.41 996 10 16 0.01 0.13
11:33 am 11:33 Mostly Cloudy 55 13 55 13 100 100 WSW 17 28 29.41 996 10 16 0.01 0.13
11:56 am 11:56 Mostly Cloudy 56 13.3 52 11.1 87 87 WSW 22 35 29.39 995 10 16 0.01 0.25
12:23 pm 12:23 Cloudy with Light Rain 54 12 52 11 94 94 SW 22 35 29.38 995 10 16 0.01 0.13
12:56 pm 12:56 Cloudy 53 11.7 51 10.6 93 93 SW 26 43 29.41 996 10 16 0.01 0.13
1:06 pm 13:06 Cloudy 54 12 52 11 94 94 SW 23 37 29.40 996 10 16 0.00 0.00
1:56 pm 13:56 Cloudy 53 11.7 48 8.9 83 83 SW 20 31 29.41 996 10 16 0.00 0.00
2:56 pm 14:56 Cloudy 51 10.6 50 10 96 96 WSW 25 41 29.43 997 10 16 0.01 0.13
3:56 pm 15:56 Cloudy 51 10.6 47 8.3 86 86 WSW 22 35 29.46 998 10 16 0.00 0.00
4:56 pm 16:56 Cloudy 50 10 50 10 100 100 SW 17 28 29.49 999 9 14 0.01 0.13
5:31 pm 17:31 Cloudy 48 9 N/A N/A SW 22 35 29.50 999 10 16 0.01 0.13
5:56 pm 17:56 Cloudy with Light Rain 49 9.4 N/A N/A WSW 20 31 29.52 1000 6 10 0.01 0.13
6:09 pm 18:09 Cloudy with Light Rain 48 9 N/A N/A SW 23 37 29.53 1000 5 8 0.01 0.13
6:56 pm 18:56 Cloudy with Light Rain N/A N/A N/A WSW 18 30 29.60 1003 9 14 0.01 0.13
7:56 pm 19:56 Cloudy with Light Rain 43 6.1 N/A N/A WNW 17 28 29.63 1003 4 6 0.01 0.13
8:56 pm 20:56 Cloudy 41 5 N/A N/A WNW 15 24 29.67 1005 10 16 0.01 0.13
9:56 pm 21:56 Cloudy with Light Rain 41 5 N/A N/A W 13 20 29.72 1006 4 6 0.01 0.25
10:03 pm 22:03 Cloudy with Light Rain 41 5 N/A N/A WNW 13 20 29.74 1007 4 6 0.01 0.13
10:56 pm 22:56 Cloudy 41 5 N/A N/A WNW 12 19 29.75 1007 10 16 0.01 0.13
11:35 pm 23:35 Cloudy 41 5 N/A N/A WNW 12 19 29.78 1008 10 16 0.00 0.00
11:56 pm 23:56 Cloudy 41 5 N/A N/A WNW 10 17 29.77 1008 10 16 0.00 0.00

Powered by AerisWeather